Tabellarische Ansicht des 1.2.2014


Die einzelnen Werte des Tages

Uhrzeit Temperatur Luftdruck Luftfeuchte Wind Hi-Wind Taupunkt THW Index Wind Chill Heat Index Solar- strahlung Regen

00:00

2.2 C

1001.3 hpa

78 %

16.1 km/h aus 117

25.7 km/h aus ESE

-1.3 C

-2.1 C

-1.9 C

2.0 C

0 W/m

0.00 mm

00:05

2.2 C

1001.3 hpa

78 %

16.1 km/h aus 115

25.7 km/h aus ESE

-1.3 C

-2.1 C

-1.9 C

2.0 C

0 W/m

0.00 mm

00:10

2.2 C

1001.3 hpa

78 %

12.9 km/h aus 116

20.9 km/h aus ESE

-1.3 C

-1.5 C

-1.3 C

2.0 C

0 W/m

0.00 mm

00:15

2.2 C

1001.2 hpa

78 %

11.3 km/h aus 117

24.1 km/h aus E

-1.3 C

-1.2 C

-1.0 C

2.0 C

0 W/m

0.00 mm

00:20

2.2 C

1001.2 hpa

78 %

12.9 km/h aus 116

24.1 km/h aus E

-1.2 C

-1.4 C

-1.3 C

2.1 C

0 W/m

0.00 mm

00:25

2.2 C

1001.2 hpa

78 %

16.1 km/h aus 117

35.4 km/h aus ESE

-1.2 C

-2.0 C

-1.8 C

2.1 C

0 W/m

0.00 mm

00:30

2.3 C

1001.1 hpa

78 %

14.5 km/h aus 117

25.7 km/h aus ESE

-1.2 C

-1.7 C

-1.5 C

2.1 C

0 W/m

0.00 mm

00:35

2.3 C

1001.1 hpa

78 %

14.5 km/h aus 117

24.1 km/h aus SE

-1.2 C

-1.7 C

-1.5 C

2.1 C

0 W/m

0.00 mm

00:40

2.3 C

1001.1 hpa

78 %

14.5 km/h aus 117

24.1 km/h aus ESE

-1.1 C

-1.6 C

-1.4 C

2.2 C

0 W/m

0.00 mm

00:45

2.3 C

1001.1 hpa

78 %

14.5 km/h aus 118

25.7 km/h aus SSE

-1.1 C

-1.6 C

-1.4 C

2.2 C

0 W/m

0.00 mm

00:50

2.3 C

1001.1 hpa

78 %

16.1 km/h aus 117

25.7 km/h aus SE

-1.1 C

-1.9 C

-1.7 C

2.2 C

0 W/m

0.00 mm

00:55

2.4 C

1001.1 hpa

78 %

14.5 km/h aus 117

29.0 km/h aus SSE

-1.1 C

-1.6 C

-1.4 C

2.2 C

0 W/m

0.00 mm

01:00

2.4 C

1000.7 hpa

78 %

14.5 km/h aus 117

24.1 km/h aus SE

-1.1 C

-1.6 C

-1.4 C

2.2 C

0 W/m

0.00 mm

01:05

2.4 C

1000.7 hpa

78 %

14.5 km/h aus 117

29.0 km/h aus SSE

-1.1 C

-1.6 C

-1.4 C

2.2 C

0 W/m

0.00 mm

01:10

2.4 C

1000.7 hpa

78 %

14.5 km/h aus 117

27.4 km/h aus SSE

-1.1 C

-1.6 C

-1.4 C

2.2 C

0 W/m

0.00 mm

01:15

2.4 C

1000.8 hpa

78 %

14.5 km/h aus 117

22.5 km/h aus SSE

-1.1 C

-1.6 C

-1.4 C

2.2 C

0 W/m

0.00 mm

01:20

2.4 C

1000.8 hpa

78 %

11.3 km/h aus 117

20.9 km/h aus SSE

-1.1 C

-0.9 C

-0.7 C

2.2 C

0 W/m

0.00 mm

01:25

2.4 C

1000.8 hpa

78 %

12.9 km/h aus 117

27.4 km/h aus SSE

-1.1 C

-1.2 C

-1.1 C

2.2 C

0 W/m

0.00 mm

01:30

2.4 C

1000.6 hpa

78 %

11.3 km/h aus 117

27.4 km/h aus SSE

-1.0 C

-0.8 C

-0.7 C

2.3 C

0 W/m

0.00 mm

01:35

2.4 C

1000.6 hpa

78 %

14.5 km/h aus 117

27.4 km/h aus SSE

-1.0 C

-1.4 C

-1.3 C

2.3 C

0 W/m

0.00 mm

01:40

2.5 C

1000.6 hpa

78 %

14.5 km/h aus 117

24.1 km/h aus SE

-0.9 C

-1.4 C

-1.2 C

2.3 C

0 W/m

0.00 mm

01:45

2.5 C

1000.5 hpa

78 %

12.9 km/h aus 117

25.7 km/h aus SE

-0.9 C

-1.1 C

-0.9 C

2.3 C

0 W/m

0.00 mm

01:50

2.6 C

1000.5 hpa

78 %

16.1 km/h aus 117

22.5 km/h aus ESE

-0.9 C

-1.6 C

-1.4 C

2.4 C

0 W/m

0.00 mm

01:55

2.6 C

1000.5 hpa

78 %

14.5 km/h aus 117

24.1 km/h aus SSE

-0.8 C

-1.3 C

-1.1 C

2.4 C

0 W/m

0.00 mm

02:00

2.7 C

1000.4 hpa

78 %

14.5 km/h aus 117

29.0 km/h aus SE

-0.8 C

-1.2 C

-1.0 C

2.5 C

0 W/m

0.00 mm

02:05

2.7 C

1000.4 hpa

78 %

14.5 km/h aus 117

22.5 km/h aus SE

-0.8 C

-1.2 C

-1.0 C

2.5 C

0 W/m

0.00 mm

02:10

2.7 C

1000.4 hpa

78 %

16.1 km/h aus 117

30.6 km/h aus SE

-0.7 C

-1.4 C

-1.2 C

2.6 C

0 W/m

0.00 mm

02:15

2.7 C

1000.1 hpa

78 %

14.5 km/h aus 117

29.0 km/h aus SE

-0.7 C

-1.1 C

-0.9 C

2.6 C

0 W/m

0.00 mm

02:20

2.7 C

1000.1 hpa

78 %

14.5 km/h aus 117

22.5 km/h aus SE

-0.7 C

-1.1 C

-0.9 C

2.6 C

0 W/m

0.00 mm

02:25

2.7 C

1000.1 hpa

78 %

14.5 km/h aus 117

22.5 km/h aus SE

-0.7 C

-1.1 C

-0.9 C

2.6 C

0 W/m

0.00 mm

02:30

2.7 C

1000.0 hpa

78 %

14.5 km/h aus 117

27.4 km/h aus SE

-0.7 C

-1.1 C

-0.9 C

2.6 C

0 W/m

0.00 mm

02:35

2.7 C

1000.0 hpa

78 %

17.7 km/h aus 117

30.6 km/h aus SSE

-0.7 C

-1.6 C

-1.4 C

2.6 C

0 W/m

0.00 mm

02:40

2.8 C

1000.0 hpa

78 %

17.7 km/h aus 117

29.0 km/h aus SE

-0.7 C

-1.6 C

-1.4 C

2.6 C

0 W/m

0.00 mm

02:45

2.8 C

999.6 hpa

78 %

17.7 km/h aus 117

30.6 km/h aus SE

-0.7 C

-1.6 C

-1.4 C

2.6 C

0 W/m

0.00 mm

02:50

2.8 C

999.6 hpa

78 %

14.5 km/h aus 117

25.7 km/h aus SE

-0.7 C

-1.1 C

-0.9 C

2.6 C

0 W/m

0.00 mm

02:55

2.8 C

999.6 hpa

78 %

11.3 km/h aus 118

22.5 km/h aus SSE

-0.7 C

-0.4 C

-0.3 C

2.6 C

0 W/m

0.00 mm

03:00

2.7 C

999.5 hpa

78 %

16.1 km/h aus 117

24.1 km/h aus SE

-0.7 C

-1.4 C

-1.2 C

2.6 C

0 W/m

0.00 mm

03:05

2.7 C

999.5 hpa

78 %

14.5 km/h aus 116

25.7 km/h aus SE

-0.7 C

-1.1 C

-0.9 C

2.6 C

0 W/m

0.00 mm

03:10

2.7 C

999.5 hpa

78 %

19.3 km/h aus 116

35.4 km/h aus SE

-0.7 C

-1.9 C

-1.7 C

2.6 C

0 W/m

0.00 mm

03:15

2.7 C

999.0 hpa

78 %

17.7 km/h aus 117

33.8 km/h aus SE

-0.7 C

-1.6 C

-1.4 C

2.6 C

0 W/m

0.00 mm

03:20

2.7 C

999.0 hpa

78 %

19.3 km/h aus 116

32.2 km/h aus ESE

-0.7 C

-1.9 C

-1.7 C

2.6 C

0 W/m

0.00 mm

03:25

2.7 C

999.0 hpa

78 %

16.1 km/h aus 117

33.8 km/h aus ESE

-0.7 C

-1.4 C

-1.2 C

2.6 C

0 W/m

0.00 mm

03:30

2.7 C

998.6 hpa

78 %

16.1 km/h aus 117

33.8 km/h aus SSE

-0.8 C

-1.4 C

-1.3 C

2.5 C

0 W/m

0.00 mm

03:35

2.7 C

998.6 hpa

78 %

20.9 km/h aus 117

32.2 km/h aus SSE

-0.8 C

-2.2 C

-2.0 C

2.5 C

0 W/m

0.00 mm

03:40

2.6 C

998.6 hpa

78 %

20.9 km/h aus 117

33.8 km/h aus SE

-0.8 C

-2.2 C

-2.1 C

2.4 C

0 W/m

0.00 mm

03:45

2.6 C

998.2 hpa

78 %

20.9 km/h aus 117

30.6 km/h aus ESE

-0.8 C

-2.2 C

-2.1 C

2.4 C

0 W/m

0.00 mm

03:50

2.6 C

998.2 hpa

78 %

20.9 km/h aus 117

40.2 km/h aus SE

-0.9 C

-2.3 C

-2.1 C

2.4 C

0 W/m

0.00 mm

03:55

2.6 C

998.2 hpa

78 %

19.3 km/h aus 117

32.2 km/h aus SE

-0.9 C

-2.1 C

-1.9 C

2.4 C

0 W/m

0.00 mm

04:00

2.6 C

997.7 hpa

78 %

20.9 km/h aus 118

33.8 km/h aus SE

-0.9 C

-2.3 C

-2.1 C

2.4 C

0 W/m

0.00 mm

04:05

2.5 C

997.7 hpa

78 %

19.3 km/h aus 116

30.6 km/h aus SE

-0.9 C

-2.2 C

-2.0 C

2.3 C

0 W/m

0.00 mm

04:10

2.5 C

997.7 hpa

78 %

20.9 km/h aus 117

35.4 km/h aus SE

-0.9 C

-2.3 C

-2.2 C

2.3 C

0 W/m

0.00 mm

04:15

2.5 C

997.8 hpa

78 %

19.3 km/h aus 117

32.2 km/h aus SSE

-0.9 C

-2.2 C

-2.0 C

2.3 C

0 W/m

0.00 mm

04:20

2.5 C

997.8 hpa

78 %

22.5 km/h aus 117

40.2 km/h aus SE

-0.9 C

-2.6 C

-2.4 C

2.3 C

0 W/m

0.00 mm

04:25

2.5 C

997.8 hpa

78 %

22.5 km/h aus 116

35.4 km/h aus SE

-0.9 C

-2.6 C

-2.4 C

2.3 C

0 W/m

0.00 mm

04:30

2.6 C

997.6 hpa

78 %

22.5 km/h aus 117

37.0 km/h aus SSE

-0.9 C

-2.5 C

-2.3 C

2.4 C

0 W/m

0.00 mm

04:35

2.5 C

997.6 hpa

78 %

17.7 km/h aus 117

30.6 km/h aus ESE

-0.9 C

-1.9 C

-1.7 C

2.3 C

0 W/m

0.00 mm

04:40

2.5 C

997.6 hpa

78 %

17.7 km/h aus 117

25.7 km/h aus ESE

-0.9 C

-1.9 C

-1.7 C

2.3 C

0 W/m

0.00 mm

04:45

2.5 C

997.4 hpa

78 %

14.5 km/h aus 117

27.4 km/h aus SSE

-0.9 C

-1.4 C

-1.2 C

2.3 C

0 W/m

0.00 mm

04:50

2.5 C

997.4 hpa

78 %

14.5 km/h aus 117

25.7 km/h aus SE

-0.9 C

-1.4 C

-1.2 C

2.3 C

0 W/m

0.00 mm

04:55

2.6 C

997.4 hpa

78 %

14.5 km/h aus 116

25.7 km/h aus SE

-0.9 C

-1.3 C

-1.2 C

2.4 C

0 W/m

0.00 mm

05:00

2.6 C

997.4 hpa

78 %

11.3 km/h aus 117

25.7 km/h aus SSE

-0.9 C

-0.7 C

-0.6 C

2.4 C

0 W/m

0.00 mm

05:05

2.6 C

997.4 hpa

78 %

14.5 km/h aus 118

22.5 km/h aus SE

-0.9 C

-1.3 C

-1.2 C

2.4 C

0 W/m

0.00 mm

05:10

2.6 C

997.4 hpa

78 %

12.9 km/h aus 117

22.5 km/h aus SE

-0.8 C

-0.9 C

-0.8 C

2.4 C

0 W/m

0.00 mm

05:15

2.6 C

997.4 hpa

78 %

12.9 km/h aus 117

22.5 km/h aus SSE

-0.8 C

-0.9 C

-0.8 C

2.4 C

0 W/m

0.00 mm

05:20

2.7 C

997.4 hpa

78 %

9.7 km/h aus 117

22.5 km/h aus SE

-0.8 C

-0.2 C

-0.1 C

2.5 C

0 W/m

0.00 mm

05:25

2.7 C

997.4 hpa

78 %

11.3 km/h aus 117

24.1 km/h aus SE

-0.8 C

-0.6 C

-0.4 C

2.5 C

0 W/m

0.00 mm

05:30

2.7 C

996.9 hpa

78 %

11.3 km/h aus 116

20.9 km/h aus SE

-0.7 C

-0.5 C

-0.3 C

2.6 C

0 W/m

0.00 mm

05:35

2.7 C

996.9 hpa

78 %

8.0 km/h aus 117

19.3 km/h aus SE

-0.7 C

0.3 C

0.4 C

2.6 C

0 W/m

0.00 mm

05:40

2.7 C

996.9 hpa

78 %

11.3 km/h aus 117

20.9 km/h aus ESE

-0.7 C

-0.5 C

-0.3 C

2.6 C

0 W/m

0.00 mm

05:45

2.8 C

996.7 hpa

78 %

12.9 km/h aus 117

24.1 km/h aus SE

-0.7 C

-0.8 C

-0.6 C

2.6 C

0 W/m

0.00 mm

05:50

2.8 C

996.7 hpa

78 %

11.3 km/h aus 117

20.9 km/h aus E

-0.6 C

-0.4 C

-0.2 C

2.7 C

0 W/m

0.00 mm

05:55

2.9 C

996.7 hpa

78 %

14.5 km/h aus 117

25.7 km/h aus SSE

-0.5 C

-0.8 C

-0.7 C

2.8 C

0 W/m

0.00 mm

06:00

3.1 C

996.4 hpa

78 %

16.1 km/h aus 117

30.6 km/h aus SE

-0.4 C

-1.0 C

-0.8 C

2.9 C

0 W/m

0.00 mm

06:05

3.2 C

996.4 hpa

78 %

17.7 km/h aus 117

27.4 km/h aus SE

-0.3 C

-1.1 C

-0.9 C

3.0 C

0 W/m

0.00 mm

06:10

3.2 C

996.4 hpa

78 %

19.3 km/h aus 117

40.2 km/h aus SSE

-0.2 C

-1.2 C

-1.1 C

3.1 C

0 W/m

0.00 mm

06:15

3.3 C

995.9 hpa

78 %

22.5 km/h aus 117

35.4 km/h aus SSE

-0.1 C

-1.5 C

-1.3 C

3.2 C

0 W/m

0.00 mm

06:20

3.4 C

995.9 hpa

78 %

22.5 km/h aus 117

32.2 km/h aus S

0.0 C

-1.3 C

-1.2 C

3.3 C

0 W/m

0.00 mm

06:25

3.5 C

995.9 hpa

78 %

24.1 km/h aus 116

41.8 km/h aus SSE

0.0 C

-1.4 C

-1.3 C

3.3 C

0 W/m

0.00 mm

06:30

3.5 C

995.8 hpa

78 %

22.5 km/h aus 116

38.6 km/h aus SSE

0.0 C

-1.3 C

-1.1 C

3.3 C

0 W/m

0.00 mm

06:35

3.6 C

995.8 hpa

77 %

24.1 km/h aus 117

38.6 km/h aus SSE

-0.1 C

-1.4 C

-1.2 C

3.3 C

0 W/m

0.00 mm

06:40

3.6 C

995.8 hpa

77 %

22.5 km/h aus 117

35.4 km/h aus SE

-0.1 C

-1.3 C

-1.1 C

3.3 C

0 W/m

0.00 mm

06:45

3.6 C

995.4 hpa

77 %

20.9 km/h aus 117

38.6 km/h aus SSE

-0.1 C

-1.1 C

-0.8 C

3.3 C

0 W/m

0.00 mm

06:50

3.6 C

995.4 hpa

77 %

20.9 km/h aus 117

46.7 km/h aus SE

0.0 C

-1.0 C

-0.8 C

3.4 C

0 W/m

0.00 mm

06:55

3.6 C

995.4 hpa

77 %

20.9 km/h aus 116

45.1 km/h aus SSE

0.0 C

-1.0 C

-0.8 C

3.4 C

0 W/m

0.00 mm

07:00

3.7 C

995.2 hpa

77 %

22.5 km/h aus 117

38.6 km/h aus SE

0.0 C

-1.1 C

-0.9 C

3.4 C

0 W/m

0.00 mm

07:05

3.7 C

995.2 hpa

77 %

24.1 km/h aus 117

40.2 km/h aus SE

0.0 C

-1.3 C

-1.1 C

3.4 C

0 W/m

0.00 mm

07:10

3.7 C

995.2 hpa

77 %

24.1 km/h aus 117

41.8 km/h aus SSE

0.1 C

-1.2 C

-1.0 C

3.5 C

0 W/m

0.00 mm

07:15

3.7 C

994.8 hpa

77 %

24.1 km/h aus 117

43.5 km/h aus SE

0.1 C

-1.2 C

-1.0 C

3.5 C

0 W/m

0.00 mm

07:20

3.8 C

994.8 hpa

77 %

29.0 km/h aus 117

40.2 km/h aus ESE

0.1 C

-1.7 C

-1.4 C

3.6 C

0 W/m

0.00 mm

07:25

3.8 C

994.8 hpa

77 %

25.7 km/h aus 117

40.2 km/h aus SSE

0.2 C

-1.3 C

-1.1 C

3.6 C

0 W/m

0.00 mm

07:30

3.8 C

994.3 hpa

77 %

24.1 km/h aus 117

40.2 km/h aus SE

0.2 C

-1.1 C

-0.9 C

3.6 C

0 W/m

0.00 mm

07:35

3.9 C

994.3 hpa

76 %

29.0 km/h aus 117

43.5 km/h aus SE

0.0 C

-1.5 C

-1.3 C

3.7 C

0 W/m

0.00 mm

07:40

3.9 C

994.3 hpa

76 %

29.0 km/h aus 117

41.8 km/h aus SSE

0.1 C

-1.4 C

-1.2 C

3.7 C

0 W/m

0.00 mm

07:45

3.9 C

994.3 hpa

76 %

27.4 km/h aus 117

46.7 km/h aus SSE

0.1 C

-1.3 C

-1.1 C

3.7 C

0 W/m

0.00 mm

07:50

3.9 C

994.3 hpa

76 %

27.4 km/h aus 117

45.1 km/h aus SE

0.1 C

-1.3 C

-1.1 C

3.7 C

0 W/m

0.00 mm

07:55

3.9 C

994.3 hpa

76 %

30.6 km/h aus 117

46.7 km/h aus SE

0.1 C

-1.6 C

-1.3 C

3.7 C

0 W/m

0.00 mm

08:00

4.0 C

994.3 hpa

76 %

27.4 km/h aus 117

40.2 km/h aus SSE

0.1 C

-1.2 C

-1.0 C

3.8 C

0 W/m

0.00 mm

08:05

4.0 C

994.3 hpa

76 %

29.0 km/h aus 115

43.5 km/h aus SSE

0.1 C

-1.4 C

-1.2 C

3.8 C

0 W/m

0.00 mm

08:10

4.1 C

994.3 hpa

76 %

32.2 km/h aus 117

53.1 km/h aus SE

0.3 C

-1.5 C

-1.3 C

3.9 C

0 W/m

0.00 mm

08:15

4.2 C

994.2 hpa

76 %

30.6 km/h aus 118

48.3 km/h aus SE

0.3 C

-1.3 C

-1.1 C

3.9 C

5 W/m

0.00 mm

08:20

4.2 C

994.2 hpa

76 %

32.2 km/h aus 117

45.1 km/h aus SE

0.4 C

-1.3 C

-1.1 C

4.0 C

9 W/m

0.00 mm

08:25

4.2 C

994.2 hpa

76 %

27.4 km/h aus 117

41.8 km/h aus SE

0.4 C

-0.9 C

-0.7 C

4.0 C

13 W/m

0.00 mm

08:30

4.2 C

994.4 hpa

76 %

27.4 km/h aus 117

51.5 km/h aus SE

0.4 C

-0.9 C

-0.7 C

4.0 C

17 W/m

0.00 mm

08:35

4.3 C

994.4 hpa

76 %

30.6 km/h aus 117

45.1 km/h aus SSE

0.4 C

-1.2 C

-0.9 C

4.1 C

19 W/m

0.00 mm

08:40

4.3 C

994.4 hpa

76 %

27.4 km/h aus 117

45.1 km/h aus S

0.4 C

-0.8 C

-0.6 C

4.1 C

16 W/m

0.00 mm

08:45

4.3 C

994.4 hpa

76 %

25.7 km/h aus 117

38.6 km/h aus SE

0.4 C

-0.7 C

-0.4 C

4.1 C

17 W/m

0.00 mm

08:50

4.3 C

994.4 hpa

76 %

29.0 km/h aus 117

43.5 km/h aus SSE

0.4 C

-1.0 C

-0.8 C

4.1 C

19 W/m

0.00 mm

08:55

4.3 C

994.4 hpa

76 %

27.4 km/h aus 117

43.5 km/h aus SSE

0.4 C

-0.8 C

-0.6 C

4.1 C

18 W/m

0.00 mm

09:00

4.2 C

994.1 hpa

76 %

25.7 km/h aus 117

41.8 km/h aus SE

0.4 C

-0.8 C

-0.6 C

4.0 C

17 W/m

0.00 mm

09:05

4.2 C

994.1 hpa

77 %

27.4 km/h aus 116

38.6 km/h aus SE

0.5 C

-1.0 C

-0.8 C

3.9 C

20 W/m

0.00 mm

09:10

4.2 C

994.1 hpa

77 %

24.1 km/h aus 117

38.6 km/h aus SSE

0.5 C

-0.7 C

-0.4 C

3.9 C

24 W/m

0.00 mm

09:15

4.1 C

994.3 hpa

77 %

29.0 km/h aus 117

41.8 km/h aus SE

0.4 C

-1.2 C

-1.0 C

3.9 C

26 W/m

0.00 mm

09:20

4.1 C

994.3 hpa

77 %

25.7 km/h aus 118

40.2 km/h aus SSE

0.4 C

-0.9 C

-0.7 C

3.9 C

29 W/m

0.00 mm

09:25

4.1 C

994.3 hpa

77 %

27.4 km/h aus 117

41.8 km/h aus SSE

0.4 C

-1.1 C

-0.8 C

3.9 C

32 W/m

0.00 mm

09:30

4.1 C

994.4 hpa

77 %

25.7 km/h aus 117

43.5 km/h aus SSE

0.4 C

-0.9 C

-0.7 C

3.9 C

40 W/m

0.00 mm

09:35

4.2 C

994.4 hpa

77 %

25.7 km/h aus 117

40.2 km/h aus SSE

0.5 C

-0.8 C

-0.6 C

4.0 C

38 W/m

0.00 mm

09:40

4.3 C

994.4 hpa

77 %

27.4 km/h aus 117

43.5 km/h aus SE

0.6 C

-0.8 C

-0.6 C

4.1 C

40 W/m

0.00 mm

09:45

4.3 C

994.6 hpa

78 %

29.0 km/h aus 117

48.3 km/h aus SSE

0.8 C

-0.9 C

-0.7 C

4.1 C

41 W/m

0.00 mm

09:50

4.4 C

994.6 hpa

78 %

30.6 km/h aus 117

48.3 km/h aus SSE

0.9 C

-0.9 C

-0.7 C

4.2 C

40 W/m

0.00 mm

09:55

4.5 C

994.6 hpa

78 %

29.0 km/h aus 117

43.5 km/h aus SE

1.0 C

-0.7 C

-0.5 C

4.3 C

43 W/m

0.00 mm

10:00

4.6 C

994.3 hpa

77 %

29.0 km/h aus 117

43.5 km/h aus SSE

0.9 C

-0.7 C

-0.4 C

4.3 C

40 W/m

0.00 mm

10:05

4.6 C

994.3 hpa

77 %

35.4 km/h aus 117

53.1 km/h aus SSE

0.9 C

-1.1 C

-0.9 C

4.4 C

43 W/m

0.00 mm

10:10

4.7 C

994.3 hpa

77 %

32.2 km/h aus 117

43.5 km/h aus SSE

1.0 C

-0.8 C

-0.6 C

4.4 C

48 W/m

0.00 mm

10:15

4.7 C

994.6 hpa

77 %

33.8 km/h aus 117

53.1 km/h aus SSE

1.0 C

-0.9 C

-0.7 C

4.4 C

52 W/m

0.00 mm

10:20

4.7 C

994.6 hpa

77 %

30.6 km/h aus 118

43.5 km/h aus SSE

1.0 C

-0.7 C

-0.4 C

4.4 C

52 W/m

0.00 mm

10:25

4.6 C

994.6 hpa

77 %

29.0 km/h aus 117

41.8 km/h aus SSE

0.9 C

-0.6 C

-0.4 C

4.4 C

47 W/m

0.00 mm

10:30

4.6 C

994.8 hpa

77 %

29.0 km/h aus 117

43.5 km/h aus S

0.9 C

-0.6 C

-0.4 C

4.4 C

45 W/m

0.00 mm

10:35

4.6 C

994.8 hpa

77 %

25.7 km/h aus 117

48.3 km/h aus SSE

0.9 C

-0.4 C

-0.2 C

4.3 C

43 W/m

0.00 mm

10:40

4.5 C

994.8 hpa

77 %

27.4 km/h aus 117

40.2 km/h aus SSE

0.8 C

-0.6 C

-0.3 C

4.3 C

47 W/m

0.00 mm

10:45

4.6 C

994.9 hpa

78 %

29.0 km/h aus 117

43.5 km/h aus SSE

1.0 C

-0.7 C

-0.4 C

4.3 C

50 W/m

0.00 mm

10:50

4.6 C

994.9 hpa

77 %

27.4 km/h aus 117

43.5 km/h aus SSE

0.9 C

-0.5 C

-0.3 C

4.3 C

47 W/m

0.00 mm

10:55

4.6 C

994.9 hpa

77 %

27.4 km/h aus 116

40.2 km/h aus SSE

0.9 C

-0.5 C

-0.3 C

4.3 C

52 W/m

0.00 mm

11:00

4.6 C

995.1 hpa

77 %

25.7 km/h aus 117

40.2 km/h aus SSE

0.9 C

-0.3 C

-0.1 C

4.4 C

58 W/m

0.00 mm

11:05

4.6 C

995.1 hpa

78 %

22.5 km/h aus 117

35.4 km/h aus SE

1.1 C

0.1 C

0.3 C

4.4 C

57 W/m

0.25 mm

11:10

4.6 C

995.1 hpa

78 %

22.5 km/h aus 117

41.8 km/h aus SSE

1.0 C

0.0 C

0.2 C

4.3 C

62 W/m

0.00 mm

11:15

4.6 C

995.3 hpa

78 %

22.5 km/h aus 116

33.8 km/h aus SSE

1.0 C

0.0 C

0.2 C

4.3 C

56 W/m

0.25 mm

11:20

4.5 C

995.3 hpa

78 %

19.3 km/h aus 117

30.6 km/h aus SSE

1.0 C

0.3 C

0.5 C

4.3 C

55 W/m

0.00 mm

11:25

4.5 C

995.3 hpa

78 %

17.7 km/h aus 117

37.0 km/h aus SE

1.0 C

0.5 C

0.7 C

4.3 C

63 W/m

0.25 mm

11:30

4.4 C

995.2 hpa

78 %

17.7 km/h aus 117

27.4 km/h aus SE

0.9 C

0.4 C

0.7 C

4.2 C

75 W/m

0.00 mm

11:35

4.4 C

995.2 hpa

78 %

17.7 km/h aus 117

27.4 km/h aus SSE

0.9 C

0.4 C

0.7 C

4.2 C

87 W/m

0.00 mm

11:40

4.5 C

995.2 hpa

78 %

17.7 km/h aus 116

24.1 km/h aus SSE

1.0 C

0.5 C

0.7 C

4.3 C

90 W/m

0.00 mm

11:45

4.5 C

995.2 hpa

78 %

16.1 km/h aus 116

27.4 km/h aus SE

1.0 C

0.7 C

0.9 C

4.3 C

84 W/m

0.00 mm

11:50

4.6 C

995.2 hpa

78 %

16.1 km/h aus 117

27.4 km/h aus SSE

1.0 C

0.8 C

1.0 C

4.3 C

87 W/m

0.00 mm

11:55

4.6 C

995.2 hpa

78 %

16.1 km/h aus 117

24.1 km/h aus SSE

1.1 C

0.9 C

1.1 C

4.4 C

72 W/m

0.00 mm

12:00

4.7 C

995.3 hpa

78 %

14.5 km/h aus 116

27.4 km/h aus SSE

1.2 C

1.2 C

1.4 C

4.4 C

59 W/m

0.00 mm

12:05

4.7 C

995.3 hpa

78 %

16.1 km/h aus 116

27.4 km/h aus SSE

1.2 C

0.9 C

1.2 C

4.4 C

56 W/m

0.00 mm

12:10

4.7 C

995.3 hpa

78 %

14.5 km/h aus 117

25.7 km/h aus S

1.2 C

1.3 C

1.5 C

4.5 C

65 W/m

0.00 mm

12:15

4.7 C

995.3 hpa

78 %

14.5 km/h aus 117

20.9 km/h aus SE

1.2 C

1.3 C

1.5 C

4.5 C

62 W/m

0.00 mm

12:20

4.8 C

995.3 hpa

78 %

16.1 km/h aus 115

29.0 km/h aus SSE

1.3 C

1.1 C

1.3 C

4.6 C

51 W/m

0.00 mm

12:25

4.8 C

995.3 hpa

78 %

16.1 km/h aus 117

27.4 km/h aus SSE

1.3 C

1.1 C

1.3 C

4.6 C

53 W/m

0.00 mm

12:30

4.8 C

995.4 hpa

78 %

11.3 km/h aus 118

19.3 km/h aus SSE

1.3 C

1.9 C

2.1 C

4.6 C

52 W/m

0.00 mm

12:35

4.8 C

995.4 hpa

78 %

14.5 km/h aus 117

24.1 km/h aus SSE

1.3 C

1.3 C

1.6 C

4.6 C

52 W/m

0.00 mm

12:40

4.8 C

995.4 hpa

78 %

11.3 km/h aus 117

19.3 km/h aus SSE

1.3 C

1.9 C

2.1 C

4.6 C

50 W/m

0.00 mm

12:45

4.8 C

995.4 hpa

78 %

12.9 km/h aus 117

17.7 km/h aus SSE

1.3 C

1.6 C

1.8 C

4.6 C

51 W/m

0.00 mm

12:50

4.8 C

995.4 hpa

78 %

11.3 km/h aus 117

20.9 km/h aus SSE

1.3 C

1.9 C

2.1 C

4.6 C

58 W/m

0.00 mm

12:55

4.8 C

995.4 hpa

78 %

11.3 km/h aus 117

19.3 km/h aus SSE

1.3 C

1.9 C

2.1 C

4.6 C

65 W/m

0.00 mm

13:00

4.8 C

995.8 hpa

78 %

12.9 km/h aus 117

20.9 km/h aus SSE

1.3 C

1.7 C

1.9 C

4.6 C

64 W/m

0.00 mm

13:05

4.8 C

995.8 hpa

78 %

11.3 km/h aus 117

19.3 km/h aus SSE

1.3 C

1.9 C

2.2 C

4.6 C

64 W/m

0.00 mm

13:10

4.8 C

995.8 hpa

78 %

9.7 km/h aus 116

16.1 km/h aus SSE

1.3 C

2.3 C

2.6 C

4.6 C

65 W/m

0.00 mm

13:15

4.8 C

996.0 hpa

78 %

11.3 km/h aus 117

17.7 km/h aus SSE

1.3 C

1.9 C

2.2 C

4.6 C

59 W/m

0.00 mm

13:20

4.8 C

996.0 hpa

78 %

6.4 km/h aus 117

14.5 km/h aus SSE

1.3 C

3.2 C

3.4 C

4.6 C

71 W/m

0.00 mm

13:25

4.8 C

996.0 hpa

78 %

4.8 km/h aus 116

14.5 km/h aus SSE

1.3 C

3.8 C

4.0 C

4.6 C

78 W/m

0.25 mm

13:30

4.9 C

996.3 hpa

78 %

6.4 km/h aus 117

19.3 km/h aus SSE

1.4 C

3.3 C

3.5 C

4.7 C

76 W/m

0.00 mm

13:35

4.9 C

996.3 hpa

78 %

4.8 km/h aus 118

14.5 km/h aus SSE

1.4 C

3.9 C

4.1 C

4.7 C

68 W/m

0.00 mm

13:40

4.9 C

996.3 hpa

78 %

4.8 km/h aus 117

11.3 km/h aus SSE

1.4 C

3.9 C

4.1 C

4.7 C

76 W/m

0.00 mm

13:45

4.9 C

996.3 hpa

78 %

3.2 km/h aus 117

8.0 km/h aus SSE

1.4 C

4.7 C

4.9 C

4.8 C

77 W/m

0.00 mm

13:50

4.9 C

996.3 hpa

78 %

6.4 km/h aus 116

14.5 km/h aus SSE

1.4 C

3.4 C

3.6 C

4.8 C

75 W/m

0.00 mm

13:55

4.9 C

996.3 hpa

78 %

8.0 km/h aus 117

14.5 km/h aus ESE

1.4 C

2.9 C

3.1 C

4.8 C

71 W/m

0.00 mm

14:00

4.9 C

996.5 hpa

78 %

8.0 km/h aus 117

19.3 km/h aus ESE

1.4 C

2.9 C

3.1 C

4.8 C

67 W/m

0.00 mm

14:05

4.9 C

996.5 hpa

78 %

8.0 km/h aus 117

16.1 km/h aus SE

1.4 C

2.8 C

3.0 C

4.7 C

60 W/m

0.00 mm

14:10

4.8 C

996.5 hpa

78 %

9.7 km/h aus 117

17.7 km/h aus SSE

1.3 C

2.3 C

2.6 C

4.6 C

55 W/m

0.00 mm

14:15

4.8 C

996.9 hpa

78 %

8.0 km/h aus 117

17.7 km/h aus SSE

1.3 C

2.7 C

2.9 C

4.6 C

53 W/m

0.00 mm

14:20

4.8 C

996.9 hpa

78 %

8.0 km/h aus 117

16.1 km/h aus SE

1.3 C

2.7 C

2.9 C

4.6 C

48 W/m

0.00 mm

14:25

4.7 C

996.9 hpa

78 %

8.0 km/h aus 117

16.1 km/h aus SE

1.2 C

2.6 C

2.8 C

4.5 C

45 W/m

0.00 mm

14:30

4.7 C

997.1 hpa

78 %

9.7 km/h aus 117

16.1 km/h aus SE

1.2 C

2.2 C

2.4 C

4.5 C

45 W/m

0.00 mm

14:35

4.7 C

997.1 hpa

78 %

12.9 km/h aus 118

17.7 km/h aus SE

1.2 C

1.5 C

1.7 C

4.4 C

43 W/m

0.00 mm

14:40

4.6 C

997.1 hpa

78 %

14.5 km/h aus 117

19.3 km/h aus SSE

1.1 C

1.2 C

1.4 C

4.4 C

40 W/m

0.00 mm

14:45

4.6 C

997.4 hpa

78 %

14.5 km/h aus 116

20.9 km/h aus SE

1.0 C

1.1 C

1.3 C

4.3 C

36 W/m

0.00 mm

14:50

4.6 C

997.4 hpa

78 %

16.1 km/h aus 117

22.5 km/h aus SSE

1.0 C

0.8 C

1.0 C

4.3 C

35 W/m

0.00 mm

14:55

4.6 C

997.4 hpa

78 %

17.7 km/h aus 117

22.5 km/h aus SSE

1.0 C

0.6 C

0.8 C

4.3 C

33 W/m

0.00 mm

15:00

4.6 C

997.4 hpa

78 %

17.7 km/h aus 117

25.7 km/h aus SE

1.0 C

0.6 C

0.8 C

4.3 C

32 W/m

0.00 mm

15:05

4.5 C

997.4 hpa

78 %

17.7 km/h aus 117

29.0 km/h aus SSE

1.0 C

0.5 C

0.7 C

4.3 C

29 W/m

0.00 mm

15:10

4.5 C

997.4 hpa

78 %

19.3 km/h aus 117

25.7 km/h aus SSE

1.0 C

0.3 C

0.5 C

4.3 C

30 W/m

0.00 mm

15:15

4.4 C

997.6 hpa

78 %

19.3 km/h aus 117

24.1 km/h aus SSE

0.9 C

0.2 C

0.4 C

4.2 C

29 W/m

0.00 mm

15:20

4.4 C

997.6 hpa

78 %

19.3 km/h aus 117

24.1 km/h aus SSE

0.9 C

0.2 C

0.4 C

4.2 C

28 W/m

0.00 mm

15:25

4.4 C

997.6 hpa

78 %

19.3 km/h aus 117

24.1 km/h aus SE

0.9 C

0.2 C

0.4 C

4.2 C

23 W/m

0.00 mm

15:30

4.4 C

997.9 hpa

78 %

17.7 km/h aus 117

22.5 km/h aus SSE

0.9 C

0.4 C

0.7 C

4.2 C

21 W/m

0.00 mm

15:35

4.4 C

997.9 hpa

77 %

19.3 km/h aus 117

25.7 km/h aus SSE

0.8 C

0.2 C

0.4 C

4.2 C

21 W/m

0.00 mm

15:40

4.4 C

997.9 hpa

77 %

17.7 km/h aus 117

25.7 km/h aus SSE

0.8 C

0.4 C

0.7 C

4.2 C

19 W/m

0.00 mm

15:45

4.4 C

998.1 hpa

77 %

17.7 km/h aus 117

22.5 km/h aus SSE

0.8 C

0.4 C

0.7 C

4.2 C

17 W/m

0.00 mm

15:50

4.4 C

998.1 hpa

77 %

17.7 km/h aus 117

20.9 km/h aus SSE

0.8 C

0.4 C

0.7 C

4.2 C

15 W/m

0.00 mm

15:55

4.4 C

998.1 hpa

77 %

17.7 km/h aus 116

24.1 km/h aus SSE

0.8 C

0.4 C

0.7 C

4.2 C

16 W/m

0.00 mm

16:00

4.4 C

998.1 hpa

77 %

20.9 km/h aus 117

25.7 km/h aus SSE

0.7 C

0.0 C

0.2 C

4.2 C

16 W/m

0.00 mm

16:05

4.4 C

998.1 hpa

77 %

20.9 km/h aus 116

30.6 km/h aus SSE

0.7 C

0.0 C

0.2 C

4.2 C

14 W/m

0.00 mm

16:10

4.4 C

998.1 hpa

77 %

20.9 km/h aus 117

29.0 km/h aus S

0.7 C

0.0 C

0.2 C

4.2 C

13 W/m

0.00 mm

16:15

4.4 C

998.4 hpa

77 %

22.5 km/h aus 117

27.4 km/h aus SSE

0.7 C

-0.2 C

0.0 C

4.2 C

12 W/m

0.00 mm

16:20

4.3 C

998.4 hpa

77 %

20.9 km/h aus 117

27.4 km/h aus SSE

0.7 C

-0.1 C

0.1 C

4.1 C

11 W/m

0.00 mm

16:25

4.3 C

998.4 hpa

77 %

20.9 km/h aus 117

29.0 km/h aus SSE

0.7 C

-0.1 C

0.1 C

4.1 C

9 W/m

0.00 mm

16:30

4.3 C

998.6 hpa

77 %

24.1 km/h aus 117

29.0 km/h aus SSE

0.7 C

-0.4 C

-0.2 C

4.1 C

7 W/m

0.00 mm

16:35

4.3 C

998.6 hpa

77 %

20.9 km/h aus 117

29.0 km/h aus SSE

0.7 C

-0.1 C

0.1 C

4.1 C

5 W/m

0.00 mm

16:40

4.3 C

998.6 hpa

77 %

22.5 km/h aus 117

29.0 km/h aus SSE

0.7 C

-0.3 C

-0.1 C

4.1 C

2 W/m

0.00 mm

16:45

4.3 C

998.9 hpa

77 %

20.9 km/h aus 118

25.7 km/h aus SSE

0.7 C

-0.1 C

0.1 C

4.1 C

0 W/m

0.00 mm

16:50

4.3 C

998.9 hpa

77 %

22.5 km/h aus 117

29.0 km/h aus SSE

0.7 C

-0.3 C

-0.1 C

4.1 C

0 W/m

0.00 mm

16:55

4.3 C

998.9 hpa

77 %

20.9 km/h aus 117

32.2 km/h aus SSE

0.6 C

-0.2 C

0.1 C

4.1 C

0 W/m

0.00 mm

17:00

4.3 C

999.0 hpa

77 %

22.5 km/h aus 116

30.6 km/h aus SSE

0.7 C

-0.3 C

-0.1 C

4.1 C

0 W/m

0.00 mm

17:05

4.3 C

999.0 hpa

77 %

20.9 km/h aus 117

27.4 km/h aus SSE

0.7 C

-0.1 C

0.1 C

4.1 C

0 W/m

0.00 mm

17:10

4.3 C

999.0 hpa

77 %

20.9 km/h aus 116

25.7 km/h aus SSE

0.7 C

-0.1 C

0.1 C

4.1 C

0 W/m

0.00 mm

17:15

4.3 C

999.4 hpa

77 %

19.3 km/h aus 117

25.7 km/h aus SSE

0.7 C

0.1 C

0.3 C

4.1 C

0 W/m

0.00 mm

17:20

4.3 C

999.4 hpa

77 %

16.1 km/h aus 117

22.5 km/h aus SSE

0.6 C

0.5 C

0.7 C

4.1 C

0 W/m

0.00 mm

17:25

4.2 C

999.4 hpa

77 %

14.5 km/h aus 117

20.9 km/h aus SE

0.5 C

0.7 C

0.9 C

4.0 C

0 W/m

0.00 mm

17:30

4.2 C

999.5 hpa

77 %

12.9 km/h aus 117

22.5 km/h aus SE

0.5 C

0.9 C

1.1 C

3.9 C

0 W/m

0.00 mm

17:35

4.2 C

999.5 hpa

77 %

11.3 km/h aus 117

17.7 km/h aus SSE

0.5 C

1.2 C

1.4 C

3.9 C

0 W/m

0.00 mm

17:40

4.1 C

999.5 hpa

77 %

11.3 km/h aus 117

19.3 km/h aus SE

0.4 C

1.1 C

1.3 C

3.9 C

0 W/m

0.25 mm

17:45

4.0 C

999.7 hpa

77 %

9.7 km/h aus 116

16.1 km/h aus SE

0.3 C

1.3 C

1.6 C

3.8 C

0 W/m

0.00 mm

17:50

4.0 C

999.7 hpa

77 %

12.9 km/h aus 118

19.3 km/h aus SE

0.3 C

0.7 C

0.9 C

3.8 C

0 W/m

0.00 mm

17:55

4.0 C

999.7 hpa

77 %

12.9 km/h aus 117

22.5 km/h aus ESE

0.3 C

0.7 C

0.9 C

3.8 C

0 W/m

0.00 mm

18:00

4.1 C

999.9 hpa

77 %

12.9 km/h aus 117

20.9 km/h aus SE

0.4 C

0.7 C

0.9 C

3.8 C

0 W/m

0.00 mm

18:05

4.1 C

999.9 hpa

77 %

11.3 km/h aus 117

20.9 km/h aus E

0.4 C

1.1 C

1.3 C

3.8 C

0 W/m

0.00 mm

18:10

4.1 C

999.9 hpa

77 %

11.3 km/h aus 117

19.3 km/h aus SE

0.4 C

1.1 C

1.3 C

3.8 C

0 W/m

0.00 mm

18:15

4.1 C

1000.0 hpa

77 %

12.9 km/h aus 117

22.5 km/h aus ESE

0.4 C

0.7 C

0.9 C

3.8 C

0 W/m

0.00 mm

18:20

4.1 C

1000.0 hpa

77 %

12.9 km/h aus 116

19.3 km/h aus ESE

0.4 C

0.7 C

0.9 C

3.8 C

0 W/m

0.00 mm

18:25

4.1 C

1000.0 hpa

77 %

9.7 km/h aus 116

19.3 km/h aus SE

0.4 C

1.4 C

1.6 C

3.8 C

0 W/m

0.00 mm

18:30

4.0 C

1000.1 hpa

77 %

11.3 km/h aus 117

19.3 km/h aus SE

0.3 C

1.0 C

1.2 C

3.8 C

0 W/m

0.00 mm

18:35

3.9 C

1000.1 hpa

77 %

12.9 km/h aus 117

20.9 km/h aus ESE

0.3 C

0.6 C

0.8 C

3.7 C

0 W/m

0.00 mm

18:40

3.9 C

1000.1 hpa

77 %

12.9 km/h aus 117

20.9 km/h aus ESE

0.2 C

0.6 C

0.8 C

3.7 C

0 W/m

0.00 mm

18:45

3.8 C

1000.4 hpa

77 %

14.5 km/h aus 117

22.5 km/h aus SE

0.2 C

0.2 C

0.4 C

3.6 C

0 W/m

0.00 mm

18:50

3.8 C

1000.4 hpa

77 %

17.7 km/h aus 116

22.5 km/h aus SE

0.2 C

-0.3 C

-0.1 C

3.6 C

0 W/m

0.00 mm

18:55

3.8 C

1000.4 hpa

77 %

16.1 km/h aus 118

24.1 km/h aus SE

0.2 C

-0.1 C

0.2 C

3.6 C

0 W/m

0.00 mm

19:00

3.8 C

1000.9 hpa

77 %

12.9 km/h aus 116

20.9 km/h aus SE

0.1 C

0.4 C

0.6 C

3.6 C

0 W/m

0.00 mm

19:05

3.8 C

1000.9 hpa

77 %

14.5 km/h aus 116

22.5 km/h aus SSE

0.2 C

0.2 C

0.4 C

3.6 C

0 W/m

0.00 mm

19:10

3.8 C

1000.9 hpa

77 %

12.9 km/h aus 116

24.1 km/h aus SE

0.2 C

0.4 C

0.7 C

3.6 C

0 W/m

0.00 mm

19:15

3.8 C

1001.1 hpa

77 %

11.3 km/h aus 117

17.7 km/h aus SE

0.2 C

0.8 C

1.0 C

3.6 C

0 W/m

0.00 mm

19:20

3.8 C

1001.1 hpa

77 %

11.3 km/h aus 116

20.9 km/h aus SE

0.2 C

0.8 C

1.0 C

3.6 C

0 W/m

0.00 mm

19:25

3.8 C

1001.1 hpa

77 %

14.5 km/h aus 116

19.3 km/h aus SE

0.1 C

0.1 C

0.3 C

3.6 C

0 W/m

0.00 mm

19:30

3.8 C

1001.3 hpa

77 %

16.1 km/h aus 116

22.5 km/h aus SSE

0.1 C

-0.1 C

0.1 C

3.6 C

0 W/m

0.00 mm

19:35

3.8 C

1001.3 hpa

77 %

16.1 km/h aus 116

19.3 km/h aus SSE

0.2 C

-0.1 C

0.2 C

3.6 C

0 W/m

0.00 mm

19:40

3.9 C

1001.3 hpa

77 %

14.5 km/h aus 117

19.3 km/h aus SE

0.2 C

0.3 C

0.5 C

3.7 C

0 W/m

0.00 mm

19:45

3.9 C

1001.4 hpa

77 %

14.5 km/h aus 117

20.9 km/h aus SSE

0.2 C

0.3 C

0.5 C

3.7 C

0 W/m

0.00 mm

19:50

3.9 C

1001.4 hpa

77 %

11.3 km/h aus 117

19.3 km/h aus SE

0.2 C

0.8 C

1.1 C

3.7 C

0 W/m

0.00 mm

19:55

3.8 C

1001.4 hpa

77 %

11.3 km/h aus 118

17.7 km/h aus SSE

0.2 C

0.8 C

1.0 C

3.6 C

0 W/m

0.00 mm

20:00

3.8 C

1001.5 hpa

77 %

12.9 km/h aus 116

20.9 km/h aus SE

0.1 C

0.4 C

0.6 C

3.6 C

0 W/m

0.00 mm

20:05

3.7 C

1001.5 hpa

77 %

12.9 km/h aus 117

22.5 km/h aus SSE

0.1 C

0.3 C

0.6 C

3.5 C

0 W/m

0.00 mm

20:10

3.7 C

1001.5 hpa

77 %

14.5 km/h aus 117

19.3 km/h aus SE

0.1 C

0.1 C

0.3 C

3.5 C

0 W/m

0.00 mm

20:15

3.7 C

1001.6 hpa

77 %

16.1 km/h aus 117

22.5 km/h aus SSE

0.1 C

-0.2 C

0.0 C

3.5 C

0 W/m

0.00 mm

20:20

3.7 C

1001.6 hpa

77 %

17.7 km/h aus 117

20.9 km/h aus SE

0.0 C

-0.5 C

-0.3 C

3.4 C

0 W/m

0.00 mm

20:25

3.7 C

1001.6 hpa

77 %

17.7 km/h aus 116

22.5 km/h aus SSE

0.0 C

-0.5 C

-0.3 C

3.4 C

0 W/m

0.00 mm

20:30

3.7 C

1001.8 hpa

77 %

17.7 km/h aus 117

22.5 km/h aus SSE

0.0 C

-0.5 C

-0.3 C

3.4 C

0 W/m

0.00 mm

20:35

3.6 C

1001.8 hpa

77 %

19.3 km/h aus 117

24.1 km/h aus SSE

0.0 C

-0.8 C

-0.6 C

3.4 C

0 W/m

0.00 mm

20:40

3.6 C

1001.8 hpa

77 %

19.3 km/h aus 117

22.5 km/h aus SSE

-0.1 C

-0.9 C

-0.7 C

3.3 C

0 W/m

0.00 mm

20:45

3.5 C

1002.0 hpa

77 %

19.3 km/h aus 115

24.1 km/h aus SSE

-0.2 C

-0.9 C

-0.7 C

3.3 C

0 W/m

0.00 mm

20:50

3.5 C

1002.0 hpa

77 %

17.7 km/h aus 117

22.5 km/h aus SSE

-0.2 C

-0.7 C

-0.5 C

3.3 C

0 W/m

0.00 mm

20:55

3.4 C

1002.0 hpa

77 %

17.7 km/h aus 116

22.5 km/h aus SSE

-0.2 C

-0.8 C

-0.6 C

3.2 C

0 W/m

0.00 mm

21:00

3.4 C

1002.0 hpa

77 %

19.3 km/h aus 117

22.5 km/h aus SSE

-0.2 C

-1.0 C

-0.8 C

3.2 C

0 W/m

0.00 mm

21:05

3.4 C

1002.0 hpa

77 %

17.7 km/h aus 115

22.5 km/h aus SSE

-0.2 C

-0.8 C

-0.6 C

3.2 C

0 W/m

0.00 mm

21:10

3.4 C

1002.0 hpa

77 %

17.7 km/h aus 116

22.5 km/h aus SSE

-0.2 C

-0.8 C

-0.6 C

3.2 C

0 W/m

0.00 mm

21:15

3.4 C

1002.1 hpa

77 %

17.7 km/h aus 116

22.5 km/h aus SE

-0.2 C

-0.8 C

-0.6 C

3.2 C

0 W/m

0.00 mm

21:20

3.4 C

1002.1 hpa

77 %

17.7 km/h aus 117

22.5 km/h aus SE

-0.2 C

-0.8 C

-0.6 C

3.2 C

0 W/m

0.00 mm

21:25

3.4 C

1002.1 hpa

77 %

17.7 km/h aus 117

24.1 km/h aus SSE

-0.3 C

-0.8 C

-0.6 C

3.2 C

0 W/m

0.00 mm

21:30

3.4 C

1002.1 hpa

77 %

19.3 km/h aus 117

25.7 km/h aus SE

-0.3 C

-1.1 C

-0.8 C

3.2 C

0 W/m

0.00 mm

21:35

3.4 C

1002.1 hpa

77 %

17.7 km/h aus 117

22.5 km/h aus SSE

-0.3 C

-0.8 C

-0.6 C

3.2 C

0 W/m

0.00 mm

21:40

3.4 C

1002.1 hpa

77 %

17.7 km/h aus 116

22.5 km/h aus SSE

-0.2 C

-0.8 C

-0.6 C

3.2 C

0 W/m

0.00 mm

21:45

3.4 C

1002.3 hpa

77 %

19.3 km/h aus 117

24.1 km/h aus SE

-0.2 C

-1.0 C

-0.8 C

3.2 C

0 W/m

0.00 mm

21:50

3.4 C

1002.3 hpa

77 %

20.9 km/h aus 117

25.7 km/h aus SSE

-0.2 C

-1.2 C

-1.0 C

3.2 C

0 W/m

0.00 mm

21:55

3.4 C

1002.3 hpa

77 %

19.3 km/h aus 117

24.1 km/h aus SSE

-0.3 C

-1.1 C

-0.8 C

3.2 C

0 W/m

0.00 mm

22:00

3.3 C

1002.3 hpa

77 %

19.3 km/h aus 117

24.1 km/h aus SSE

-0.3 C

-1.2 C

-0.9 C

3.1 C

0 W/m

0.00 mm

22:05

3.3 C

1002.3 hpa

77 %

19.3 km/h aus 118

25.7 km/h aus SE

-0.3 C

-1.2 C

-0.9 C

3.1 C

0 W/m

0.00 mm

22:10

3.4 C

1002.3 hpa

77 %

19.3 km/h aus 117

24.1 km/h aus SE

-0.3 C

-1.1 C

-0.8 C

3.2 C

0 W/m

0.00 mm

22:15

3.4 C

1002.4 hpa

77 %

17.7 km/h aus 117

24.1 km/h aus SSE

-0.3 C

-0.8 C

-0.6 C

3.2 C

0 W/m

0.00 mm

22:20

3.4 C

1002.4 hpa

77 %

17.7 km/h aus 117

22.5 km/h aus SSE

-0.3 C

-0.8 C

-0.6 C

3.2 C

0 W/m

0.00 mm

22:25

3.3 C

1002.4 hpa

77 %

17.7 km/h aus 117

22.5 km/h aus SSE

-0.3 C

-0.9 C

-0.7 C

3.1 C

0 W/m

0.00 mm

22:30

3.3 C

1002.5 hpa

77 %

17.7 km/h aus 117

20.9 km/h aus SSE

-0.3 C

-0.9 C

-0.7 C

3.1 C

0 W/m

0.00 mm

22:35

3.3 C

1002.5 hpa

77 %

17.7 km/h aus 117

22.5 km/h aus SSE

-0.4 C

-1.0 C

-0.8 C

3.1 C

0 W/m

0.00 mm

22:40

3.2 C

1002.5 hpa

77 %

16.1 km/h aus 116

20.9 km/h aus SSE

-0.4 C

-0.8 C

-0.6 C

3.0 C

0 W/m

0.00 mm

22:45

3.2 C

1002.6 hpa

77 %

17.7 km/h aus 117

20.9 km/h aus SSE

-0.4 C

-1.1 C

-0.8 C

3.0 C

0 W/m

0.00 mm

22:50

3.2 C

1002.6 hpa

77 %

17.7 km/h aus 116

20.9 km/h aus SSE

-0.4 C

-1.1 C

-0.8 C

3.0 C

0 W/m

0.00 mm

22:55

3.2 C

1002.6 hpa

77 %

17.7 km/h aus 117

20.9 km/h aus SSE

-0.4 C

-1.1 C

-0.8 C

3.0 C

0 W/m

0.00 mm

23:00

3.2 C

1002.6 hpa

77 %

16.1 km/h aus 117

20.9 km/h aus SSE

-0.4 C

-0.8 C

-0.6 C

3.0 C

0 W/m

0.00 mm

23:05

3.3 C

1002.6 hpa

77 %

17.7 km/h aus 115

20.9 km/h aus SSE

-0.4 C

-1.0 C

-0.8 C

3.1 C

0 W/m

0.00 mm

23:10

3.3 C

1002.6 hpa

77 %

19.3 km/h aus 117

24.1 km/h aus SSE

-0.4 C

-1.2 C

-1.0 C

3.1 C

0 W/m

0.00 mm

23:15

3.3 C

1002.7 hpa

77 %

19.3 km/h aus 117

22.5 km/h aus SSE

-0.3 C

-1.2 C

-0.9 C

3.1 C

0 W/m

0.00 mm

23:20

3.3 C

1002.7 hpa

77 %

17.7 km/h aus 117

24.1 km/h aus SSE

-0.3 C

-0.9 C

-0.7 C

3.1 C

0 W/m

0.00 mm

23:25

3.3 C

1002.7 hpa

77 %

16.1 km/h aus 117

19.3 km/h aus SSE

-0.3 C

-0.7 C

-0.4 C

3.1 C

0 W/m

0.00 mm

23:30

3.3 C

1003.1 hpa

77 %

14.5 km/h aus 117

19.3 km/h aus SSE

-0.3 C

-0.4 C

-0.2 C

3.1 C

0 W/m

0.00 mm

23:35

3.4 C

1003.1 hpa

77 %

14.5 km/h aus 117

19.3 km/h aus SSE

-0.3 C

-0.3 C

-0.1 C

3.2 C

0 W/m

0.00 mm

23:40

3.4 C

1003.1 hpa

77 %

11.3 km/h aus 116

19.3 km/h aus SSE

-0.3 C

0.2 C

0.4 C

3.2 C

0 W/m

0.00 mm

23:45

3.4 C

1003.1 hpa

77 %

8.0 km/h aus 116

14.5 km/h aus SSE

-0.2 C

1.1 C

1.3 C

3.2 C

0 W/m

0.00 mm

23:50

3.4 C

1003.1 hpa

77 %

11.3 km/h aus 117

16.1 km/h aus SSE

-0.2 C

0.3 C

0.6 C

3.2 C

0 W/m

0.00 mm

23:55

3.4 C

1003.1 hpa

77 %

12.9 km/h aus 117

19.3 km/h aus SSE

-0.2 C

0.0 C

0.2 C

3.2 C

0 W/m

0.00 mm